Location: Unspecified
(41.9000°N, 12.4830°E)
Time: 16:24:49
(UTC+01:00)

ISS - Visible Passes

Search period start: 21 February 2018 00:00
Search period end: 03 March 2018 00:00
Orbit: 403 x 407 km, 51.6° (Epoch: 22 February)

Date Brightness Start Highest point End Pass type
(mag) Time Alt. Az. Time Alt. Az. Time Alt. Az.
25 Feb -0.6 05:41:20 10° SE 05:42:16 11° SE 05:43:12 10° ESE visible
27 Feb -1.7 05:31:10 10° SSW 05:33:56 25° SE 05:36:42 10° ENE visible
28 Feb -1.1 04:41:05 13° SSE 04:41:51 14° SE 04:43:37 10° E visible
28 Feb -3.8 06:14:41 10° WSW 06:17:57 70° NNW 06:21:13 10° NE visible
01 Mar -3.5 05:24:05 26° SW 05:25:41 62° SE 05:28:55 10° ENE visible
02 Mar -1.9 04:34:14 28° ESE 04:34:14 28° ESE 04:36:27 10° ENE visible
02 Mar -2.9 06:06:54 10° W 06:09:56 35° NNW 06:12:59 10° NE visible
